Regional Weather Roundup
Issued by NWS

Home | Current Version | Previous Version | Graphics & Text | Print | Product List | Glossary On
Versions: 1 2 3 4 5 6 7 8 9 10 11 12 13 14 15 16 17 18 19 20 21 22 23 24 25 26 27 28 29 30 31 32 33 34 35 36 37 38 39 40 41 42 43 44 45 46 47 48 49 50
668
ASUS45 KPSR 270610
RWRAZ

ARIZONA HOURLY REGIONAL WEATHER ROUNDUP
NATIONAL WEATHER SERVICE PHOENIX AZ
1100 PM MST FRI MAY 26 2017

NOTE: FAIR INDICATES FEW OR NO CLOUDS BELOW 12,000 FEET WITH NO
SIGNIFICANT WEATHER AND/OR OBSTRUCTIONS TO VISIBILITY.

AZZ001>003-036-270700-
NORTHWEST ARIZONA

CITY           SKY/WX    TMP DP  RH WIND       PRES   REMARKS
BULLHEAD CITY  CLEAR     81  32  17 CALM      29.77S
KINGMAN        CLEAR     66  24  20 SW5       29.93S
6HR MIN TEMP:  59; 6HR MAX TEMP:  82;

$$

AZZ004>008-015-016-018-270700-
NORTH CENTRAL ARIZONA

CITY           SKY/WX    TMP DP  RH WIND       PRES   REMARKS
GRAND CANYON   CLEAR     49  24  37 CALM      30.12R
6HR MIN TEMP:  49; 6HR MAX TEMP:  71;

WILLIAMS       CLEAR     54  25  32 S8        30.13R
PRESCOTT       CLEAR     55  35  47 S6        30.06R
6HR MIN TEMP:  55; 6HR MAX TEMP:  75;

FLAGSTAFF      CLEAR     42  19  39 CALM      30.15R
6HR MIN TEMP:  41; 6HR MAX TEMP:  66;

PAYSON         CLEAR     64  18  16 W6        30.10S
PAGE           CLEAR     72  19  13 SW7       29.90R
6HR MIN TEMP:  72; 6HR MAX TEMP:  86;

$$

AZZ009>014-017-270700-
NORTHEAST ARIZONA

CITY           SKY/WX    TMP DP  RH WIND       PRES   REMARKS
WINSLOW        CLEAR     53  17  24 SW10      30.04S
6HR MIN TEMP:  53; 6HR MAX TEMP:  81;

SAINT JOHNS    CLEAR     56  16  20 W7        30.08R
6HR MIN TEMP:  55; 6HR MAX TEMP:  78;

WINDOW ROCK    CLEAR     51  14  22 S6        30.12R
6HR MIN TEMP:  51; 6HR MAX TEMP:  74;

SHOW LOW       CLEAR     54  16  22 SW9       30.13S
$$

AZZ540-542>544-546-548-270700-
GREATER PHOENIX AREA

CITY           SKY/WX    TMP DP  RH WIND       PRES   REMARKS
PHOENIX        CLEAR     83  28  13 W8        29.84R
6HR MIN TEMP:  82; 6HR MAX TEMP:  95;

BUCKEYE        CLEAR     73  28  19 SW7       29.86R
LUKE AFB       CLEAR     79  33  18 SW7       29.84R
6HR MIN TEMP:  79; 6HR MAX TEMP:  93;

DEER VALLEY    CLEAR     79  32  18 SW7       29.86R
6HR MIN TEMP:  79; 6HR MAX TEMP:  91;

SCOTTSDALE     CLEAR     81  33  17 W5        29.88R
6HR MIN TEMP:  81; 6HR MAX TEMP:  92;

MESA-GATEWAY   CLEAR     79  30  17 SW8       29.87S
$$

AZZ539-553-270700-
SOUTHWEST MARICOPA COUNTY AND PINAL COUNTY

CITY           SKY/WX    TMP DP  RH WIND       PRES   REMARKS
CASA GRANDE    CLEAR     73  24  16 S9        29.90R
6HR MIN TEMP:  73; 6HR MAX TEMP:  94;

GILA BEND      FAIR      74  16  11 SE6       29.84R
6HR MIN TEMP:  74; 6HR MAX TEMP:  93;

$$

AZZ503-504-507>509-270700-
SOUTHEAST ARIZONA

CITY           SKY/WX    TMP DP  RH WIND       PRES   REMARKS
TUCSON         CLEAR     76  27  16 NW6       29.98R
6HR MIN TEMP:  76; 6HR MAX TEMP:  93;

DAVIS-MONTHAN  CLEAR     73  26  17 NW5       29.98R
6HR MIN TEMP:  73; 6HR MAX TEMP:  92;

NOGALES        CLEAR     68  32  26 S6        30.05R
6HR MIN TEMP:  67; 6HR MAX TEMP:  87;

SIERRA VISTA   CLEAR     69  21  16 CALM      30.09S
6HR MIN TEMP:  69; 6HR MAX TEMP:  85;

DOUGLAS        CLEAR     68  28  22 S7        30.06S
6HR MIN TEMP:  68; 6HR MAX TEMP:  88;

SAFFORD        CLEAR     76  27  16 NW13      29.95R
6HR MIN TEMP:  74; 6HR MAX TEMP:  93; 6HR PCP: TRACE;

$$

AZZ532-270700-
SOUTHWEST ARIZONA

CITY           SKY/WX    TMP DP  RH WIND       PRES   REMARKS
YUMA           CLEAR     75  55  49 S7        29.84R
6HR MIN TEMP:  75; 6HR MAX TEMP:  92;

$$

CAZ041-043-047-048-061-525>527-560>570-270700-
SOUTHERN CALIFORNIA

CITY           SKY/WX    TMP DP  RH WIND       PRES   REMARKS
DOWNTOWN L.A.  CLEAR     63  54  72 CALM      30.01R
6HR MIN TEMP:  63; 6HR MAX TEMP:  69;

L.A. AIRPORT   PTCLDY    60  56  86 W10       30.02R
6HR MIN TEMP:  60; 6HR MAX TEMP:  67;

SAN DIEGO      PTCLDY    64  56  75 N6        30.05R
6HR MIN TEMP:  64; 6HR MAX TEMP:  70;

BURBANK        CLEAR     61  47  59 W5        30.02R
6HR MIN TEMP:  61; 6HR MAX TEMP:  69;

ONTARIO        PTCLDY    59  48  67 W9        30.02R
6HR MIN TEMP:  59; 6HR MAX TEMP:  71;

RIVERSIDE      CLEAR     60  51  72 VRB6      30.02R
6HR MIN TEMP:  60; 6HR MAX TEMP:  73;

PALM SPRINGS   CLEAR     74  48  39 NW16      29.83R
6HR MIN TEMP:  74; 6HR MAX TEMP:  92;

EL CENTRO NAS  CLEAR     74  42  31 W15       29.84R
6HR MIN TEMP:  73; 6HR MAX TEMP:  93; 6HR PCP: TRACE;

IMPERIAL       LGT RAIN  73  46  38 W14       29.81R
6HR MIN TEMP:  73; 6HR MAX TEMP:  93; 6HR PCP: TRACE;

BLYTHE         CLEAR     82  42  24 E8        29.80R
6HR MIN TEMP:  81; 6HR MAX TEMP:  94;

NEEDLES        CLEAR     87  33  14 SW12      29.78R
6HR MIN TEMP:  87; 6HR MAX TEMP:  97;

$$

NVZ020-UTZ003-270700-
SOUTHERN NEVADA-UTAH

CITY           SKY/WX    TMP DP  RH WIND       PRES   REMARKS
LAS VEGAS      CLEAR     80  17   9 SW10      29.78R
6HR MIN TEMP:  80; 6HR MAX TEMP:  91;

SALT LAKE CITY PTCLDY    56  40  55 NW9       30.05R
6HR MIN TEMP:  53; 6HR MAX TEMP:  68;

$$

NMZ009-TXZ055-270700-
NEW MEXICO-WEST TEXAS

CITY           SKY/WX    TMP DP  RH WIND       PRES   REMARKS
ALBUQUERQUE    CLEAR     68   9  10 CALM      30.03R
6HR MIN TEMP:  68; 6HR MAX TEMP:  86;

EL PASO        CLEAR     82  25  12 SW16G25   29.99R
6HR MIN TEMP:  81; 6HR MAX TEMP:  93;

$$


........................KEY........................
SKY/WX - SKY CONDITION/WEATHER
TMP    - TEMPERATURE IN FAHRENHEIT
DP     - DEW POINT IN FAHRENHEIT
RH     - RELATIVE HUMIDITY IN PERCENT
WIND   - DIRECTION AND SPEED IN MILES PER HOUR (MPH)
VRB    - VARIABLE WIND DIRECTION
PRES   - MEAN SEA LEVEL PRESSURE IN INCHES OF MERCURY
         F - FALLING PRESSURE   R - RISING PRESSURE
         S - STEADY PRESSURE
VSB    - VISIBILITY IN MILES
HX     - HEAT INDEX IN FAHRENHEIT
WCI    - WIND CHILL INDEX IN FAHRENHEIT
TC     - TEMPERATURE IN CELSIUS WHICH IS ALSO KNOWN AS
         TEMPERATURE IN CENTIGRADE
AFB    - AIR FORCE BASE
         LUKE AFB IS LUKE AIR FORCE BASE
         DAVIS-MONTHAN IS DAVIS-MONTHAN AIR FORCE BASE
NAS    - NAVAL AIR STATION
         EL CENTRO NAS IS EL CENTRO NAVAL AIR STATION
N/A    - NOT AVAILABLE





USA.gov is the U.S. government's official web portal to all federal, state and local government web resources and services.